Orbital Elements at Epoch 2459200.5 (2020-Dec-17.0) TDB
Reference: JPL 26 (heliocentric ecliptic J2000)
Element | Value | Uncertainty (1-sigma) | Units |
e | .1294303417777277 | 3.5528e-08 | |
a | 2.316517181431912 | 1.0063e-08 | au |
q | 2.016689570905201 | 8.3495e-08 | au |
i | 5.142797841818071 | 4.0494e-06 | deg |
node | 278.2991433842055 | 5.06e-05 | deg |
peri | 338.5420282677916 | 5.385e-05 | deg |
M | 237.2999054537918 | 1.995e-05 | deg |
tp | 2459639.428834658081 (2022-Feb-28.92883466) | 7.2402e-05 | TDB |
period | 1287.809769514088 3.53 | 8.3915e-06 2.297e-08 | d yr |
n | .2795443927528474 | 1.8215e-09 | deg/d |
Q | 2.616344791958623 | 1.1366e-08 | au |
|
| | Orbit Determination Parameters
Additional Information
|